Weather History for Windsor, ON

Change the Weather History Date:

Sunday, April 13, 2014

  Actual Average Record
Temperature  
Mean Temperature 60 °F -  
Max Temperature 75 °F 61 °F 75 °F (2006)
Min Temperature 46 °F 41 °F 32 °F (2003)
Degree Days  
Heating Degree Days 4    
Growing Degree Days 10 (Base 50)    
Moisture  
Dew Point 53 °F    
Average Humidity 73    
Maximum Humidity 100    
Minimum Humidity 49    
Precipitation  
Precipitation 0.00 in 0.10 in - ()
Sea Level Pressure  
Sea Level Pressure 29.79 in    
Wind  
Wind Speed 11 mph ()    
Max Wind Speed 26 mph    
Max Gust Speed 34 mph    
Visibility 14.4 miles    
Events      
Averages and records for this station are not official NWS values.
T = Trace of Precipitation, MM = Missing Value Source: Averaged Metar Reports

Daily Weather History Graph

Daily Weather History Graph

Search for Another Location

Airport:

Trip Planner

Search our weather history database for the weather conditions in past years. The results will help you decide how hot, cold, wet, or windy it might be!

Date:

Astronomy

Apr. 13, 2014 Rise Set
Actual Time 6:54 AM EDT 8:11 PM EDT
Civil Twilight 6:25 AM EDT 8:40 PM EDT
Nautical Twilight 5:50 AM EDT 9:15 PM EDT
Astronomical Twilight 5:13 AM EDT 9:51 PM EDT
Moon 6:46 PM EDT (4/13) 5:54 AM EDT (4/13)
Length of Visible Light 14h 14m
Length of Day
13h 16m
Waxing Gibbous, 97% of the Moon is Illuminated
Apr 13
Waxing Gibbous
Apr 15
Full
Apr 22
Last Quarter
Apr 29
New
May 6
First Quarter

Hourly Weather History & Observations

Time (EDT) Temp. Windchill Dew Point Humidity Pressure Visibility Wind Dir Wind Speed Gust Speed Precip Events Conditions
12:00 AM 51.8 °F - 46.4 °F 82% 29.86 in 15.0 mi North 9.2 mph - N/A   Overcast
1:00 AM 50.0 °F - 46.4 °F 87% 29.86 in 15.0 mi SSE 4.6 mph - N/A   Mostly Cloudy
2:00 AM 50 °F - 47 °F 87% 29.90 in 15 mi North 15.0 mph - -   Partly Cloudy
2:00 AM 50.0 °F - 48.2 °F 94% 29.90 in 15.0 mi North 15.0 mph 21.9 mph N/A   Mostly Cloudy
3:00 AM 48.2 °F - 46.4 °F 93% 29.91 in 10.0 mi NE 16.1 mph 24.2 mph N/A   Mostly Cloudy
4:00 AM 46.4 °F 41.5 °F 46.4 °F 100% 29.85 in 12.0 mi East 10.4 mph - N/A   Mostly Cloudy
5:00 AM 46.4 °F 42.9 °F 46.4 °F 100% 29.83 in 12.0 mi East 6.9 mph - N/A   Mostly Cloudy
6:00 AM 46.4 °F 44.3 °F 46.4 °F 100% 29.82 in 12.0 mi SE 4.6 mph - N/A   Mostly Cloudy
7:00 AM 50.0 °F - 48.2 °F 94% 29.80 in 12.0 mi SSE 6.9 mph - N/A   Mostly Cloudy
8:00 AM 53 °F - 49 °F 80% 29.82 in 15 mi South 6.9 mph - -   Mostly Cloudy
8:00 AM 53.6 °F - 48.2 °F 82% 29.82 in 15.0 mi South 8.1 mph - N/A   Mostly Cloudy
9:00 AM 59.0 °F - 51.8 °F 77% 29.81 in 15.0 mi SSW 13.8 mph - N/A   Mostly Cloudy
10:00 AM 66.2 °F - 55.4 °F 68% 29.78 in 15.0 mi SSW 17.3 mph 23.0 mph N/A   Mostly Cloudy
11:00 AM 68.0 °F - 55.4 °F 64% 29.79 in 15.0 mi SW 25.3 mph 32.2 mph N/A   Overcast
12:00 PM 69.8 °F - 57.2 °F 64% 29.78 in 15.0 mi SW 19.6 mph - N/A   Overcast
1:00 PM 73.4 °F - 57.2 °F 57% 29.76 in 15.0 mi SW 23.0 mph 34.5 mph N/A   Overcast
2:00 PM 73 °F - 58 °F 49% 29.76 in 15 mi SW 23.0 mph - -   Overcast
2:00 PM 73.4 °F - 57.2 °F 57% 29.76 in 15.0 mi SW 25.3 mph 31.1 mph N/A   Overcast
3:00 PM 73.4 °F - 59.0 °F 61% 29.75 in 15.0 mi SW 25.3 mph 31.1 mph N/A   Overcast
4:00 PM 75.2 °F - 59.0 °F 57% 29.75 in 15.0 mi SSW 26.5 mph 33.4 mph N/A   Overcast
5:00 PM 75.2 °F - 59.0 °F 57% 29.73 in 15.0 mi WSW 16.1 mph 25.3 mph N/A   Overcast
6:00 PM 73.4 °F - 59.0 °F 61% 29.75 in 15.0 mi SW 13.8 mph - N/A   Overcast
7:00 PM 73.4 °F - 57.2 °F 57% 29.74 in 15.0 mi SW 9.2 mph - N/A   Mostly Cloudy
8:00 PM 71 °F - 56 °F 50% 29.73 in 15 mi SSW 6.9 mph - -   Overcast
8:00 PM 71.6 °F - 57.2 °F 60% 29.73 in 15.0 mi SSW 6.9 mph - N/A   Overcast
9:00 PM 68.0 °F - 55.4 °F 64% 29.72 in 15.0 mi East 6.9 mph - N/A   Overcast
10:00 PM 64.4 °F - 55.4 °F 73% 29.71 in 15.0 mi SSE 9.2 mph - N/A   Overcast
11:00 PM 62.6 °F - 53.6 °F 72% 29.67 in 15.0 mi SSE 9.2 mph - N/A   Overcast